{"data":{"norad_id":39188,"epoch":"2026-05-24T20:27:54.980352Z","epoch_age_seconds":84200,"freshness":"FRESH","line1":"1 39188U 13031A   26144.85271968 -.00000024  00000+0  00000+0 0  9995","line2":"2 39188   0.1006 351.6472 0003040  59.1588 309.2204  5.00116522235876","mean_motion":5.00116522,"eccentricity":0.000304,"inclination_deg":0.1006,"raan_deg":351.6472,"arg_perigee_deg":59.1588,"mean_anomaly_deg":309.2204,"bstar":0,"rev_number":23587,"period_min":287.93289896549,"perigee_km":8061.4795621805,"apogee_km":8070.2615187651,"semimajor_km":14444.007540473,"source":"CELESTRAK","updated_at":"2026-05-25T13:38:14.506692Z"}}